User: anonymous   Login
Location: Caltech
(34.1382°N, 118.1253°W)
Time: 05:38:10
(UTC-08:00)
Language:

Cosmos 1025 Rocket - Orbit

View from above orbital plane
View from above orbital plane
View from above satellite
View from above satellite

Ground track
Ground track

The orbit data is extracted from the following two-line orbital elements,

1 10974U 78067B   14352.52061338  .00000879  00000-0  95627-4 0  4905
2 10974 082.4832 312.4141 0019202 122.1540 019.9714 14.86791270972087
Epoch (UTC): 18 December 2014 12:29:40
Eccentricity: 0.0019202
inclination: 82.4832°
perigee height: 594 km
apogee height: 621 km
right ascension of ascending node: 312.4141°
argument of perigee: 122.1540°
revolutions per day: 14.86791270
mean anomaly at epoch: 19.9714°
orbit number at epoch: 97208

The dashed part of the orbit path shows where the satellite is in the earth's shadow,  

DLR